Location: Kershaw
(34.5481°N, 80.5823°W)
Time: 16:29:06
(UTC+00:00)

Transit 2A - Pass Details

Date: 07 October 2022
Orbit: 598 x 959 km, 66.7° (Epoch: 06 December)

Event Time Altitude Azimuth Distance (km) Brightness Sun altitude
Rises 13:47:23 0° 311° (NW) 3,081 8.6 27.6°
Reaches altitude 10° 13:50:29 10° 289° (WNW) 2,229 8.0 28.2°
Maximum altitude 13:53:29 16° 253° (WSW) 1,916 7.8 28.7°
Drops below altitude 10° 13:56:40 10° 216° (SW) 2,367 8.6 29.3°
Sets 14:00:08 0° 196° (SSW) 3,373 9.5 29.9°
